This demonstration page uses our WeatherBlox Daily Observations layout. Learn more.

Left ArrowRight Arrow

31.31129, -92.44514

Hourly Observations for December 21, 2020

Temp ( °F °C ) Dew Point ( °F °C ) Humidity (%) Winds ( mph kmh ) Pressure ( in mb ) Visibility ( mi km ) Precip ( " mm )
12:00 am 00:00 Mostly Cloudy with Fog 40 4.4 40 4.4 100 100 Calm 30.11 1020 0 0 0.00 0.00
12:23 am 00:23 Mostly Cloudy with Fog 40 4.4 40 4.4 100 100 Calm 30.10 1019 1 1 0.00 0.00
12:44 am 00:44 Mostly Clear with Mist and Fog 40 4.4 40 4.4 100 100 Calm 30.09 1019 1 2 0.00 0.00
12:53 am 00:53 Mostly Clear with Mist and Fog 39 3.9 39 3.9 100 100 Calm 30.10 1019 3 5 0.00 0.00
1:04 am 01:04 Mostly Cloudy with Mist and Fog 39 3.9 39 3.9 100 100 Calm 30.09 1019 3 4 0.00 0.00
1:13 am 01:13 Mostly Cloudy with Mist and Fog 39 3.9 39 3.9 100 100 Calm 30.09 1019 1 1 0.00 0.00
1:29 am 01:29 Mostly Cloudy with Mist and Fog 39 3.9 39 3.9 100 100 Calm 30.10 1019 2 2 0.00 0.00
1:37 am 01:37 Partly Cloudy with Mist and Fog 39 3.9 39 3.9 100 100 Calm 30.10 1019 3 4 0.00 0.00
1:53 am 01:53 Clear with Mist and Fog 38 3.3 38 3.3 100 100 Calm 30.11 1020 3 5 0.00 0.00
2:53 am 02:53 Clear with Mist and Fog 37 2.8 37 2.8 100 100 Calm 30.12 1020 6 10 0.00 0.00
3:53 am 03:53 Clear with Mist and Fog 37 2.8 37 2.8 100 100 Calm 30.14 1021 5 8 0.00 0.00
4:53 am 04:53 Clear with Mist and Fog 36 2.2 36 2.2 100 100 Calm 30.14 1021 4 6 0.00 0.00
5:36 am 05:36 Clear with Mist and Fog 36 2.2 36 2.2 100 100 Calm 30.14 1021 2 3 0.00 0.00
5:47 am 05:47 Clear with Mist and Fog 36 2 36 2 100 100 Calm 30.14 1021 3 5 0.00 0.00
5:53 am 05:53 Clear with Mist and Fog 36 2.2 36 2.2 100 100 Calm 30.15 1021 5 8 0.00 0.00
6:53 am 06:53 Clear with Mist and Fog 35 1.7 35 1.7 100 100 Calm 30.17 1022 6 10 0.00 0.00
7:53 am 07:53 Sunny with Mist and Fog 37 2.8 37 2.8 100 100 Calm 30.20 1023 5 8 0.00 0.00
8:53 am 08:53 Sunny 44 6.7 43 6.1 96 96 Calm 30.22 1023 9 14 0.00 0.00
9:53 am 09:53 Sunny 49 9.4 46 7.8 90 90 Calm 30.23 1024 10 16 0.00 0.00
10:53 am 10:53 Sunny 55 12.8 48 8.9 77 77 Calm 30.22 1024 10 16 0.00 0.00
11:53 am 11:53 Sunny 61 16.1 47 8.3 60 60 NW 5 7 30.20 1023 10 16 0.00 0.00
12:53 pm 12:53 Sunny 62 16.7 44 6.7 52 52 VRB 3 6 30.17 1022 10 16 0.00 0.00
1:53 pm 13:53 Sunny 64 17.8 44 6.7 48 48 WNW 5 7 30.15 1021 10 16 0.00 0.00
2:53 pm 14:53 Sunny 65 18.3 44 6.7 47 47 W 3 6 30.15 1021 10 16 0.00 0.00
3:53 pm 15:53 Sunny 65 18.3 43 6.1 45 45 WSW 3 6 30.15 1021 10 16 0.00 0.00
4:53 pm 16:53 Sunny 63 17.2 44 6.7 50 50 Calm 30.16 1021 10 16 0.00 0.00
5:53 pm 17:53 Clear 56 13.3 43 6.1 62 62 Calm 30.17 1022 10 16 0.00 0.00
6:53 pm 18:53 Clear 53 11.7 45 7.2 74 74 SSE 3 6 30.19 1022 10 16 0.00 0.00
7:53 pm 19:53 Clear 49 9.4 45 7.2 86 86 Calm 30.21 1023 10 16 0.00 0.00
8:53 pm 20:53 Clear 47 8.3 43 6.1 86 86 Calm 30.22 1023 10 16 0.00 0.00
9:53 pm 21:53 Clear 45 7.2 44 6.7 97 97 Calm 30.23 1024 10 16 0.00 0.00
10:53 pm 22:53 Clear 44 6.7 42 5.6 93 93 Calm 30.23 1024 10 16 0.00 0.00
11:53 pm 23:53 Clear 43 6.1 42 5.6 97 97 Calm 30.23 1024 10 16 0.00 0.00

Powered by AerisWeather